Location: Houston
(29.7631°N, 95.3631°W)
Time: 02:35:15
(UTC-06:00)

DX 1 - Pass Details

Date: 20 November 2019
Orbit: 619 x 631 km, 98.4° (Epoch: 16 December)

Event Time Altitude Azimuth Distance (km) Brightness Sun altitude
Rises 04:43:00 0° 177° (S) 2,892 ? -27.4°
Reaches altitude 10° 04:45:13 10° 182° (S) 1,987 ? -26.9°
Enters shadow 04:45:24 11° 183° (S) 1,913 ? -26.9°
